When you browse on this site, cookies collect data to enhance your experience and personalize the content and advertising you see.
Visit our Privacy Policy to learn more. By continuing to use the site, you agree to this use of cookies and data.
  • In Hungary
  • List of Countries
  • For 7 days
  • Water Temperature
  • Weather Map
  • News
  • Weather Widgets
  • user-avatar
    Login

    Hourly Weather Kapustyn

    Today, 10 December, Tuesday

    Time Temperature Precipitation Wind Pressure Humidity
    00:00 +1°C° 0 mm 3 mps 728 mmHg 86%
    01:00 +2°C° 0 mm 2 mps 729 mmHg 85%
    02:00 +2°C° 0 mm 2 mps 729 mmHg 85%
    03:00 +2°C° 0 mm 2 mps 729 mmHg 84%
    04:00 +2°C° 0 mm 2 mps 729 mmHg 84%
    05:00 +3°C° 0 mm 2 mps 729 mmHg 83%
    06:00 +4°C° 0 mm 1 mps 729 mmHg 83%
    07:00 +4°C° 0 mm 1 mps 730 mmHg 83%
    08:00 +4°C° 0 mm 1 mps 730 mmHg 83%
    09:00 +5°C° 0 mm 1 mps 730 mmHg 81%
    10:00 +5°C° 0 mm 1 mps 731 mmHg 79%
    11:00 +6°C° 0 mm 1 mps 731 mmHg 77%
    12:00 +6°C° 0 mm 1 mps 731 mmHg 77%
    13:00 +7°C° 0 mm 1 mps 731 mmHg 77%
    14:00 +7°C° 0 mm 1 mps 732 mmHg 77%
    15:00 +6°C° 0 mm 2 mps 732 mmHg 80%
    16:00 +5°C° 0 mm 2 mps 732 mmHg 83%
    17:00 +5°C° 0 mm 2 mps 732 mmHg 86%
    18:00 +4°C° 0 mm 2 mps 733 mmHg 86%
    19:00 +3°C° 0 mm 3 mps 734 mmHg 86%
    20:00 +3°C° 0 mm 4 mps 734 mmHg 87%
    21:00 +3°C° 0 mm 4 mps 735 mmHg 88%
    22:00 +3°C° 0 mm 4 mps 735 mmHg 89%
    23:00 +1°C° 0 mm 4 mps 735 mmHg 90%

    Tomorrow, 11 December, Wednesday

    Time Temperature Precipitation Wind Pressure Humidity
    00:00 +1°C° 0 mm 4 mps 735 mmHg 87%
    01:00 +1°C° 0 mm 3 mps 735 mmHg 84%
    02:00 +1°C° 0 mm 3 mps 736 mmHg 81%
    03:00 0°C° 0 mm 3 mps 736 mmHg 81%
    04:00 0°C° 0 mm 3 mps 735 mmHg 80%
    05:00 +1°C° 0 mm 2 mps 735 mmHg 80%
    06:00 -1°C° 0 mm 2 mps 736 mmHg 81%
    07:00 -1°C° 0 mm 2 mps 736 mmHg 83%
    08:00 -1°C° 0 mm 2 mps 736 mmHg 84%
    09:00 -1°C° 0.1 mm 2 mps 736 mmHg 85%
    10:00 +2°C° 0.1 mm 1 mps 736 mmHg 86%
    11:00 +2°C° 0.1 mm 1 mps 736 mmHg 87%
    12:00 +2°C° 0 mm 1 mps 736 mmHg 85%
    13:00 +2°C° 0 mm 2 mps 735 mmHg 83%
    14:00 +2°C° 0 mm 2 mps 735 mmHg 81%
    15:00 +2°C° 0 mm 2 mps 735 mmHg 82%
    16:00 +1°C° 0 mm 3 mps 734 mmHg 82%
    17:00 +1°C° 0 mm 3 mps 734 mmHg 83%
    18:00 +2°C° 0 mm 3 mps 734 mmHg 85%
    19:00 +1°C° 0 mm 4 mps 734 mmHg 87%
    20:00 +1°C° 0 mm 4 mps 734 mmHg 90%
    21:00 +1°C° 0 mm 4 mps 733 mmHg 91%
    22:00 +1°C° 0 mm 4 mps 733 mmHg 91%
    23:00 +1°C° 0 mm 4 mps 733 mmHg 92%

    Day after tomorrow, 12 December, Thursday

    Time Temperature Precipitation Wind Pressure Humidity
    00:00 +2°C° 0 mm 5 mps 733 mmHg 90%
    01:00 +2°C° 0 mm 5 mps 733 mmHg 88%
    02:00 +2°C° 0 mm 6 mps 732 mmHg 86%
    03:00 +2°C° 0 mm 6 mps 732 mmHg 86%
    04:00 +1°C° 0 mm 5 mps 732 mmHg 86%
    05:00 +1°C° 0 mm 5 mps 731 mmHg 86%
    06:00 0°C° 0 mm 5 mps 731 mmHg 87%
    07:00 0°C° 0 mm 5 mps 732 mmHg 89%
    08:00 0°C° 0 mm 4 mps 732 mmHg 90%
    09:00 0°C° 0 mm 5 mps 732 mmHg 88%
    10:00 +1°C° 0 mm 5 mps 732 mmHg 86%
    11:00 +1°C° 0 mm 5 mps 731 mmHg 84%
    12:00 +1°C° 0 mm 5 mps 731 mmHg 84%
    13:00 +1°C° 0 mm 5 mps 731 mmHg 84%
    14:00 +2°C° 0 mm 5 mps 731 mmHg 84%
    15:00 +1°C° 0 mm 5 mps 730 mmHg 85%
    16:00 +1°C° 0 mm 5 mps 730 mmHg 86%
    17:00 0°C° 0 mm 4 mps 730 mmHg 88%
    18:00 0°C° 0 mm 5 mps 730 mmHg 88%
    19:00 0°C° 0 mm 5 mps 730 mmHg 89%
    20:00 0°C° 0 mm 5 mps 730 mmHg 89%
    21:00 -1°C° 0 mm 6 mps 730 mmHg 88%
    22:00 -1°C° 0 mm 6 mps 729 mmHg 88%
    23:00 -1°C° 0 mm 6 mps 729 mmHg 87%

    13 December, Friday

    Time Temperature Precipitation Wind Pressure Humidity
    00:00 +1°C° 0 mm 6 mps 729 mmHg 85%
    01:00 +1°C° 0 mm 6 mps 729 mmHg 83%
    02:00 +1°C° 0 mm 6 mps 728 mmHg 81%
    03:00 +1°C° 0 mm 6 mps 728 mmHg 83%
    04:00 -1°C° 0 mm 6 mps 727 mmHg 84%
    05:00 -1°C° 0 mm 7 mps 727 mmHg 85%
    06:00 -1°C° 0 mm 7 mps 726 mmHg 86%
    07:00 -1°C° 0 mm 7 mps 726 mmHg 87%
    08:00 -2°C° 0 mm 7 mps 726 mmHg 87%
    09:00 -1°C° 0 mm 7 mps 726 mmHg 87%
    10:00 -1°C° 0 mm 8 mps 725 mmHg 86%
    11:00 -1°C° 0 mm 8 mps 725 mmHg 85%
    12:00 -1°C° 0 mm 8 mps 725 mmHg 84%
    13:00 -1°C° 0 mm 8 mps 724 mmHg 83%
    14:00 0°C° 0 mm 8 mps 724 mmHg 81%
    15:00 0°C° 0 mm 8 mps 723 mmHg 81%
    16:00 0°C° 0 mm 8 mps 723 mmHg 81%
    17:00 0°C° 0 mm 8 mps 723 mmHg 81%
    18:00 0°C° 0 mm 8 mps 723 mmHg 82%
    19:00 0°C° 0 mm 7 mps 723 mmHg 82%
    20:00 0°C° 0 mm 7 mps 723 mmHg 83%
    21:00 0°C° 0 mm 7 mps 723 mmHg 83%
    22:00 0°C° 0 mm 7 mps 723 mmHg 84%
    23:00 0°C° 0 mm 7 mps 723 mmHg 84%

    14 December, Saturday

    Time Temperature Precipitation Wind Pressure Humidity
    00:00 0°C° 0 mm 7 mps 723 mmHg 85%
    01:00 +1°C° 0 mm 6 mps 723 mmHg 86%
    02:00 +1°C° 0 mm 6 mps 722 mmHg 86%
    03:00 +1°C° 0 mm 6 mps 722 mmHg 87%
    04:00 +1°C° 0 mm 6 mps 722 mmHg 87%
    05:00 +1°C° 0 mm 6 mps 722 mmHg 87%
    06:00 +1°C° 0.1 mm 6 mps 722 mmHg 88%
    07:00 +1°C° 0.1 mm 6 mps 722 mmHg 88%
    08:00 +1°C° 0.1 mm 6 mps 722 mmHg 88%
    09:00 +2°C° 0 mm 6 mps 722 mmHg 88%
    10:00 +2°C° 0 mm 7 mps 722 mmHg 88%
    11:00 +2°C° 0 mm 7 mps 722 mmHg 89%
    12:00 +3°C° 0 mm 7 mps 722 mmHg 88%
    13:00 +4°C° 0 mm 6 mps 721 mmHg 87%
    14:00 +5°C° 0 mm 6 mps 721 mmHg 86%
    15:00 +5°C° 0 mm 6 mps 721 mmHg 86%
    16:00 +5°C° 0 mm 6 mps 721 mmHg 86%
    17:00 +5°C° 0 mm 6 mps 722 mmHg 86%
    18:00 +5°C° 0.1 mm 6 mps 722 mmHg 86%
    19:00 +6°C° 0.1 mm 5 mps 722 mmHg 87%
    20:00 +5°C° 0.1 mm 5 mps 722 mmHg 88%
    21:00 +5°C° 0 mm 5 mps 722 mmHg 89%
    22:00 +5°C° 0 mm 4 mps 723 mmHg 90%
    23:00 +5°C° 0 mm 4 mps 723 mmHg 91%

    15 December, Sunday

    Time Temperature Precipitation Wind Pressure Humidity
    00:00 +5°C° 0.2 mm 4 mps 724 mmHg 86%
    01:00 +5°C° 0.2 mm 5 mps 724 mmHg 82%
    02:00 +5°C° 0.2 mm 5 mps 724 mmHg 78%
    03:00 +3°C° 0 mm 5 mps 725 mmHg 79%
    04:00 +3°C° 0 mm 4 mps 725 mmHg 80%
    05:00 +1°C° 0 mm 4 mps 726 mmHg 80%
    06:00 +1°C° 0 mm 4 mps 726 mmHg 80%
    07:00 0°C° 0 mm 4 mps 727 mmHg 80%
    08:00 0°C° 0 mm 4 mps 728 mmHg 80%
    09:00 +1°C° 0 mm 5 mps 728 mmHg 75%
    10:00 +2°C° 0 mm 5 mps 729 mmHg 70%
    11:00 +3°C° 0 mm 6 mps 730 mmHg 65%
    12:00 +3°C° 0.1 mm 7 mps 730 mmHg 71%
    13:00 +2°C° 0.1 mm 7 mps 730 mmHg 76%
    14:00 +2°C° 0.1 mm 7 mps 730 mmHg 82%
    15:00 +2°C° 0.1 mm 6 mps 731 mmHg 78%
    16:00 +1°C° 0.1 mm 5 mps 732 mmHg 74%
    17:00 +1°C° 0.1 mm 4 mps 732 mmHg 70%
    18:00 0°C° 0 mm 4 mps 733 mmHg 71%
    19:00 +1°C° 0 mm 3 mps 734 mmHg 73%
    20:00 0°C° 0 mm 3 mps 734 mmHg 74%
    21:00 0°C° 0 mm 3 mps 734 mmHg 75%
    22:00 0°C° 0 mm 3 mps 735 mmHg 77%
    23:00 -1°C° 0 mm 3 mps 735 mmHg 78%
    Show more